Weather in Korkatovo

Russia / Mari El Republic     56°20′53″N   48°45′26″E
temp.,
°C
wind,
m/s
gust,
m/s
humid.,
%
clouds,
%
prec.,
mm/h
press.,
hPa
HPBL,
m
1 march, mon
mon100:00−19nnw239843 0.0 101730
03:00−21nnw239822 0.0 101926
06:00−21nnw239959 0.0 102024
09:00−17nw129230 0.0 1021163
12:00−12wnw238562 0.0 1021397
15:00−10w249080 0.0 1020432
18:00−13sw4897100 0.0 1017160
21:00−12sw4119699 0.1 1015263
2 march, tue
tue200:00−8sw61394100 0.2 1010488
03:00−6sw61495100 2.3 1006677
06:00−3sw61496100 2.6 1001687
09:00+1wsw61299100 4.1 999689
12:000w61198100 1.3 996702
15:000wnw61198100 2.5 996822
18:00−2w4119694 0.8 997485
21:00−2wnw6129592 1.2 999758
3 march, wed
wed300:00−4wnw51193100 0.9 998464
03:00−5w499697 1.0 1000337
06:00−6wnw499599 0.1 999356
09:00−5wnw5993100 0.3 1001578
12:00−4nw5991100 0.3 1002813
15:00−5nw6988100 0.5 1003764
18:00−6nw51090100 0.1 1004758
21:00−7wnw41094100 0.3 1006458
4 march, thu
thu400:00−10wsw379788 0.1 1005194
03:00−9wsw399592 0.2 1005288
06:00−7wsw499597 0.3 1004321
09:00−5wsw5109499 0.3 1002458
12:00−3sw61194100 0.4 999820
15:00−2sw71294100 1.4 997903
18:000sw71496100 1.5 9931097
21:00−1wsw81595100 3.3 9921144
5 march, fri
fri500:00−1wsw81593100 0.6 9921054
03:00−6w6148683 0.8 995707
06:00−9w5129366 0.0 998490
09:00−8w599283 0.1 1001527
12:00−7w4690100 0.1 1004569
15:00−6wnw4686100 0.1 1007780
18:00−11wnw239483 0.0 100921
21:00−15nnw119775 0.0 101120